• In Hungary
  • List of Countries
  • For 7 days
  • Water Temperature
  • Satellite Maps
  • Weather Map
  • News
  • Weather Widgets
  • user-avatar
    Login

    Hourly Weather Puerto San José

    Today, 24 February, Saturday

    Time Temperature Precipitation Wind Pressure Humidity
    00:00 +27°C° 0 mm 2 mps 761 mmHg 70%
    01:00 +26°C° 0.5 mm 2 mps 761 mmHg 69%
    02:00 +26°C° 0.5 mm 1 mps 760 mmHg 68%
    03:00 +26°C° 0.5 mm 1 mps 760 mmHg 67%
    04:00 +26°C° 0.2 mm 1 mps 760 mmHg 67%
    05:00 +26°C° 0.2 mm 1 mps 760 mmHg 68%
    06:00 +25°C° 0.2 mm 1 mps 760 mmHg 68%
    07:00 +28°C° 0 mm 1 mps 760 mmHg 60%
    08:00 +30°C° 0 mm 1 mps 761 mmHg 53%
    09:00 +33°C° 0 mm 1 mps 761 mmHg 45%
    10:00 +34°C° 0 mm 2 mps 761 mmHg 43%
    11:00 +35°C° 0 mm 3 mps 760 mmHg 41%
    12:00 +36°C° 0 mm 3 mps 760 mmHg 39%
    13:00 +36°C° 0.1 mm 4 mps 759 mmHg 43%
    14:00 +35°C° 0.1 mm 4 mps 759 mmHg 46%
    15:00 +35°C° 0.1 mm 4 mps 758 mmHg 50%
    16:00 +33°C° 0.2 mm 4 mps 758 mmHg 55%
    17:00 +31°C° 0.2 mm 3 mps 759 mmHg 61%
    18:00 +30°C° 0.2 mm 2 mps 759 mmHg 66%
    19:00 +29°C° 0.1 mm 2 mps 759 mmHg 70%
    20:00 +28°C° 0.1 mm 2 mps 760 mmHg 74%
    21:00 +27°C° 0.1 mm 2 mps 760 mmHg 78%
    22:00 +27°C° 0 mm 2 mps 760 mmHg 78%
    23:00 +26°C° 0 mm 2 mps 761 mmHg 78%

    Tomorrow, 25 February, Sunday

    Time Temperature Precipitation Wind Pressure Humidity
    00:00 +26°C° 0 mm 2 mps 761 mmHg 78%
    01:00 +26°C° 0.8 mm 2 mps 760 mmHg 77%
    02:00 +25°C° 0.8 mm 2 mps 760 mmHg 77%
    03:00 +25°C° 0.8 mm 1 mps 760 mmHg 76%
    04:00 +25°C° 0.3 mm 1 mps 760 mmHg 76%
    05:00 +25°C° 0.3 mm 2 mps 760 mmHg 75%
    06:00 +25°C° 0.3 mm 2 mps 760 mmHg 75%
    07:00 +27°C° 0.1 mm 2 mps 760 mmHg 66%
    08:00 +30°C° 0.1 mm 1 mps 761 mmHg 57%
    09:00 +32°C° 0.1 mm 1 mps 761 mmHg 48%
    10:00 +34°C° 0 mm 2 mps 761 mmHg 45%
    11:00 +35°C° 0 mm 2 mps 760 mmHg 42%
    12:00 +36°C° 0 mm 2 mps 760 mmHg 39%
    13:00 +36°C° 0.2 mm 3 mps 759 mmHg 41%
    14:00 +36°C° 0.2 mm 3 mps 759 mmHg 42%
    15:00 +35°C° 0.2 mm 3 mps 758 mmHg 44%
    16:00 +34°C° 0.1 mm 3 mps 758 mmHg 50%
    17:00 +31°C° 0.1 mm 2 mps 759 mmHg 55%
    18:00 +30°C° 0.1 mm 1 mps 759 mmHg 61%
    19:00 +29°C° 0 mm 1 mps 760 mmHg 66%
    20:00 +28°C° 0 mm 1 mps 760 mmHg 70%
    21:00 +27°C° 0 mm 1 mps 761 mmHg 75%
    22:00 +26°C° 0 mm 1 mps 761 mmHg 75%
    23:00 +26°C° 0 mm 1 mps 761 mmHg 76%

    Day after tomorrow, 26 February, Monday

    Time Temperature Precipitation Wind Pressure Humidity
    00:00 +26°C° 0 mm 1 mps 761 mmHg 76%
    01:00 +26°C° 0 mm 1 mps 761 mmHg 75%
    02:00 +25°C° 0 mm 1 mps 760 mmHg 75%
    03:00 +25°C° 0 mm 1 mps 760 mmHg 75%
    04:00 +25°C° 0.2 mm 1 mps 760 mmHg 73%
    05:00 +25°C° 0.2 mm 1 mps 760 mmHg 72%
    06:00 +25°C° 0.2 mm 1 mps 761 mmHg 71%
    07:00 +27°C° 0 mm 1 mps 761 mmHg 63%
    08:00 +30°C° 0 mm 1 mps 761 mmHg 55%
    09:00 +32°C° 0 mm 2 mps 762 mmHg 46%
    10:00 +34°C° 0 mm 2 mps 761 mmHg 43%
    11:00 +36°C° 0 mm 2 mps 761 mmHg 40%
    12:00 +37°C° 0 mm 3 mps 760 mmHg 36%
    13:00 +36°C° 0 mm 3 mps 760 mmHg 39%
    14:00 +36°C° 0 mm 4 mps 759 mmHg 42%
    15:00 +35°C° 0 mm 4 mps 758 mmHg 45%
    16:00 +34°C° 0 mm 3 mps 759 mmHg 51%
    17:00 +31°C° 0 mm 3 mps 759 mmHg 58%
    18:00 +30°C° 0 mm 2 mps 759 mmHg 64%
    19:00 +29°C° 0 mm 2 mps 760 mmHg 68%
    20:00 +28°C° 0 mm 2 mps 761 mmHg 72%
    21:00 +27°C° 0 mm 1 mps 761 mmHg 77%
    22:00 +26°C° 0 mm 2 mps 761 mmHg 76%
    23:00 +26°C° 0 mm 2 mps 761 mmHg 75%

    27 February, Tuesday

    Time Temperature Precipitation Wind Pressure Humidity
    00:00 +26°C° 0 mm 2 mps 761 mmHg 74%
    01:00 +26°C° 0 mm 2 mps 761 mmHg 72%
    02:00 +25°C° 0 mm 2 mps 761 mmHg 70%
    03:00 +25°C° 0 mm 2 mps 760 mmHg 69%
    04:00 +25°C° 0.1 mm 2 mps 760 mmHg 67%
    05:00 +25°C° 0.1 mm 2 mps 761 mmHg 65%
    06:00 +24°C° 0.1 mm 2 mps 761 mmHg 63%
    07:00 +27°C° 0 mm 2 mps 761 mmHg 54%
    08:00 +30°C° 0 mm 2 mps 762 mmHg 45%
    09:00 +32°C° 0 mm 2 mps 762 mmHg 35%
    10:00 +35°C° 0 mm 2 mps 761 mmHg 32%
    11:00 +36°C° 0 mm 3 mps 761 mmHg 29%
    12:00 +38°C° 0 mm 3 mps 760 mmHg 25%
    13:00 +37°C° 0 mm 4 mps 760 mmHg 29%
    14:00 +37°C° 0 mm 4 mps 759 mmHg 33%
    15:00 +36°C° 0 mm 5 mps 758 mmHg 37%
    16:00 +34°C° 0 mm 4 mps 758 mmHg 46%
    17:00 +31°C° 0 mm 3 mps 758 mmHg 54%
    18:00 +30°C° 0 mm 2 mps 759 mmHg 62%
    19:00 +29°C° 0 mm 2 mps 760 mmHg 67%
    20:00 +28°C° 0 mm 1 mps 760 mmHg 71%
    21:00 +27°C° 0 mm 1 mps 761 mmHg 75%
    22:00 +26°C° 0 mm 1 mps 761 mmHg 73%
    23:00 +26°C° 0 mm 1 mps 761 mmHg 71%

    28 February, Wednesday

    Time Temperature Precipitation Wind Pressure Humidity
    00:00 +26°C° 0 mm 1 mps 761 mmHg 68%
    01:00 +25°C° 0 mm 1 mps 760 mmHg 66%
    02:00 +25°C° 0 mm 1 mps 760 mmHg 64%
    03:00 +25°C° 0 mm 1 mps 759 mmHg 62%
    04:00 +25°C° 0.2 mm 1 mps 760 mmHg 60%
    05:00 +24°C° 0.2 mm 1 mps 760 mmHg 59%
    06:00 +24°C° 0.2 mm 1 mps 760 mmHg 57%
    07:00 +27°C° 0 mm 1 mps 760 mmHg 50%
    08:00 +30°C° 0 mm 1 mps 760 mmHg 42%
    09:00 +32°C° 0 mm 1 mps 761 mmHg 34%
    10:00 +35°C° 0 mm 2 mps 760 mmHg 32%
    11:00 +36°C° 0 mm 2 mps 760 mmHg 29%
    12:00 +38°C° 0 mm 3 mps 759 mmHg 26%
    13:00 +37°C° 0 mm 3 mps 758 mmHg 30%
    14:00 +36°C° 0 mm 4 mps 758 mmHg 33%
    15:00 +36°C° 0 mm 4 mps 757 mmHg 36%
    16:00 +34°C° 0 mm 3 mps 757 mmHg 43%
    17:00 +32°C° 0 mm 2 mps 757 mmHg 51%
    18:00 +30°C° 0 mm 2 mps 758 mmHg 58%
    19:00 +29°C° 0 mm 1 mps 758 mmHg 63%
    20:00 +28°C° 0 mm 1 mps 759 mmHg 68%
    21:00 +27°C° 0 mm 1 mps 760 mmHg 73%
    22:00 +26°C° 0 mm 1 mps 760 mmHg 73%
    23:00 +26°C° 0 mm 2 mps 760 mmHg 73%

    1 March, Thursday

    Time Temperature Precipitation Wind Pressure Humidity
    00:00 +26°C° 0 mm 2 mps 760 mmHg 73%
    01:00 +26°C° 0 mm 2 mps 759 mmHg 73%
    02:00 +26°C° 0 mm 2 mps 759 mmHg 72%
    03:00 +25°C° 0 mm 2 mps 759 mmHg 71%
    04:00 +25°C° 0.2 mm 2 mps 759 mmHg 70%
    05:00 +25°C° 0.2 mm 2 mps 759 mmHg 69%
    06:00 +25°C° 0.2 mm 2 mps 759 mmHg 67%
    07:00 +27°C° 0.1 mm 2 mps 759 mmHg 59%
    08:00 +30°C° 0.1 mm 2 mps 760 mmHg 51%
    09:00 +32°C° 0.1 mm 2 mps 760 mmHg 44%
    10:00 +34°C° 0 mm 2 mps 760 mmHg 42%
    11:00 +35°C° 0 mm 2 mps 759 mmHg 40%
    12:00 +36°C° 0 mm 3 mps 759 mmHg 38%
    13:00 +36°C° 0 mm 3 mps 758 mmHg 40%
    14:00 +36°C° 0 mm 3 mps 757 mmHg 41%
    15:00 +36°C° 0 mm 3 mps 757 mmHg 43%
    16:00 +34°C° 0 mm 3 mps 757 mmHg 49%
    17:00 +32°C° 0 mm 2 mps 757 mmHg 54%
    18:00 +30°C° 0 mm 2 mps 758 mmHg 60%
    19:00 +29°C° 0 mm 1 mps 758 mmHg 65%
    20:00 +28°C° 0 mm 1 mps 759 mmHg 69%
    21:00 +27°C° 0 mm 1 mps 760 mmHg 74%
    22:00 +27°C° 0 mm 1 mps 760 mmHg 74%
    23:00 +27°C° 0 mm 1 mps 760 mmHg 74%
    Show more